FLOCK 4Y-10 (55029 NORAD) Tracking and Keplerian Element Data

This shows tracking and keplerian element data for the satellite.

Feedback or suggestion? Click here.




ElementValue
Catalog55029
NameFLOCK 4Y-10
Epoch Orbit1249
Epoch Day85.17076146
Epoch Year2023
RAAN146.018
Inclination97.4885
Eccentricity0.0009795
Argument of Perigee296.6917
Mean Anonmoly63.3312
Mean Motion15.15957231
Decay Rate0.00014659
L11 55029U 23001W 23085.17076146 .00014659 00000+0 76584-3 0 9994
L22 55029 97.4885 146.0180 0009795 296.6917 63.3312 15.15957231 12497



Live tracking and technical data element details for FLOCK 4Y-10 (NORAD 55029). FLOCK 4Y-10 can be tracked NOW for your location showing map with azimuth and elevation plus other details from your city location.







IsCatalogInMostPopularTable: catalog: 55029, numindb: 7
Update: records affected: 1



GetName: 55029 FLOCK 4Y-10

Hit Count: updated at: Mon, 27 Mar 2023 07:07:35 GMT